User: anonymous   Login
Location: Clermont
(50.2608°N, 4.3172°E)
Time: 15:57:10
(UTC+00:00)
Language:

Cosmos 44 - Orbit

View from above orbital plane
View from above orbital plane
View from above satellite
View from above satellite

Ground track
Ground track

The orbit data is extracted from the following two-line orbital elements,

1   876U 64053A   20292.64887678 -.00000107  00000-0  57144-5 0  9993
2   876  65.0597 303.0530 0141995 345.9783  13.7392 14.63768188986423
Epoch (UTC): 18 October 2020 15:34:22
Eccentricity: 0.0141995
inclination: 65.0597°
perigee height: 581 km
apogee height: 781 km
right ascension of ascending node: 303.0530°
argument of perigee: 345.9783°
revolutions per day: 14.63768188
mean anomaly at epoch: 13.7392°
orbit number at epoch: 98642

The dashed part of the orbit path shows where the satellite is in the earth's shadow,  

DLR